Theta_e
328 327 329 331 335 335 335 334 329 327 329 336 336 343 342 341 343 341 339 341 339 345 341 344 346 349 353 353 354 354 354 356 355 356 356 357 357 359
327 325 325 326 328 329 329 331 333 330 325 333 334 337 341 346 346 344 342 342 342 343 339 340 344 346 349 350 351 351 351 352 352 351 352 352 353 355
327 327 327 326 323 323 323 325 325 326 323 327 333 338 338 340 344 346 345 343 345 343 339 340 342 343 343 344 345 347 348 349 349 349 350 350 351 352
324 323 320 322 318 319 318 317 319 321 319 318 324 328 333 338 338 341 344 348 346 343 339 340 341 339 339 339 340 341 341 342 343 343 345 347 348 349
318 319 316 316 313 313 314 315 316 318 319 318 319 324 330 335 336 338 341 342 345 344 339 341 340 340 338 336 335 334 334 335 335 336 338 340 343 346
315 317 315 313 312 314 316 316 318 318 317 318 320 321 326 328 332 329 329 336 337 345 344 343 342 340 339 335 334 334 330 328 328 329 331 332 335 339
314 315 315 315 320 320 317 316 319 319 315 316 315 317 319 321 321 323 324 328 329 337 335 338 340 342 341 336 338 337 332 330 326 326 326 326 328 331
313 311 312 314 312 317 320 321 321 319 318 316 318 316 315 317 319 321 321 322 320 333 328 329 338 337 343 344 339 336 334 332 329 326 324 323 324 326
313 310 312 314 310 308 313 316 316 321 322 315 310 312 316 318 318 317 318 319 321 327 326 325 334 333 336 341 336 332 331 329 328 326 325 323 323 322
312 309 307 307 307 308 307 308 309 309 310 313 312 314 319 319 321 322 318 319 320 323 326 321 328 329 335 340 336 333 331 328 327 325 323 321 319 318
311 308 307 305 314 315 304 304 305 308 314 317 318 323 323 324 321 313 312 310 311 314 321 316 322 323 329 332 338 333 330 327 323 323 323 320 316 315
308 306 315 310 313 312 304 303 303 305 306 308 310 310 313 312 320 313 309 307 309 311 317 315 316 321 319 327 330 334 337 325 320 319 319 320 315 324
307 306 307 315 312 311 311 304 304 308 310 306 306 306 308 308 307 308 312 310 307 307 314 316 317 318 319 320 325 327 331 335 337 332 315 315 315 321
306 307 306 311 310 310 311 312 314 314 307 304 302 302 304 305 308 309 306 306 311 312 313 312 312 315 312 313 314 320 323 329 334 334 336 324 313 314
307 311 312 309 309 311 315 315 314 310 306 303 301 302 304 305 307 306 306 305 306 309 315 311 310 311 313 308 309 312 316 323 327 330 331 335 332 323
312 303 309 312 314 314 312 309 308 307 306 304 303 305 304 305 303 304 301 301 302 303 307 310 309 309 306 307 307 308 315 319 321 320 323 331 335 333
301 301 302 303 307 306 305 306 305 305 305 304 304 304 304 307 306 303 301 301 299 298 301 304 307 310 309 306 304 312 313 314 314 317 317 321 329 336
300 300 300 304 307 309 308 305 305 308 306 305 303 302 303 304 306 301 300 299 297 298 299 300 302 303 304 304 313 304 308 307 311 314 314 315 322 330
297 299 302 307 308 308 309 308 305 305 304 304 302 302 303 304 300 299 298 297 297 297 298 299 299 301 299 298 302 311 303 305 310 310 311 312 315 317
299 301 303 305 307 309 309 306 305 305 304 304 303 303 302 298 297 296 296 295 297 298 297 298 298 299 299 300 300 304 308 306 305 307 307 310 315 319
306 308 309 310 311 311 310 307 306 308 304 302 300 298 297 296 295 295 296 299 299 297 297 296 299 308 305 304 301 302 305 308 308 307 306 307 310 315
309 310 311 310 310 311 305 305 303 300 299 298 297 296 296 296 296 296 296 296 296 296 297 299 301 300 302 302 299 300 303 306 308 310 312 312 311 310
307 306 307 307 306 303 300 299 299 299 297 296 295 295 296 295 296 296 296 296 297 297 297 297 299 297 297 297 299 299 301 304 303 304 308 312 312 313
Wind_Speed
5 6 4 4 5 4 2 1 2 3 3 3 3 3 4 2 3 5 6 9 5 5 11 16 18 24 24 24 23 22 23 23 23 22 23 23 24 23
3 6 4 4 5 6 5 6 3 2 2 2 3 5 6 5 7 4 5 10 9 8 4 14 16 19 22 22 21 19 19 20 19 19 19 20 22 22
5 5 9 9 5 6 6 6 5 4 4 4 3 6 5 6 6 4 8 9 5 9 6 11 19 19 16 15 15 16 18 19 20 20 20 20 20 21
9 10 8 7 7 6 5 6 5 5 3 6 5 5 5 6 5 5 5 4 5 10 11 11 10 12 12 13 15 14 15 16 16 18 19 21 21 22
6 7 5 6 5 4 4 5 5 5 4 3 4 3 4 6 5 4 5 7 6 10 16 17 14 10 14 12 14 13 14 16 16 17 17 18 20 21
6 6 6 7 6 8 8 8 7 7 4 4 4 5 3 7 5 8 9 6 7 4 8 11 16 18 21 18 15 16 15 15 16 17 18 18 18 20
5 6 6 13 15 12 7 9 5 4 3 3 3 3 5 7 7 6 5 6 7 1 1 2 3 7 11 13 12 12 14 16 16 17 17 18 19 19
5 6 4 9 10 14 15 16 13 6 5 4 4 5 4 4 4 4 3 6 5 4 5 7 3 4 4 3 9 14 13 17 19 18 17 18 18 20
5 5 3 4 7 6 12 14 13 14 14 5 4 3 3 4 5 6 7 4 4 8 4 6 2 3 5 5 3 6 11 15 19 18 20 19 19 19
6 4 3 2 4 6 7 8 8 7 7 6 5 7 4 5 3 4 3 5 5 6 8 3 3 6 5 6 10 8 7 14 18 18 18 18 19 19
3 2 2 2 2 5 5 6 8 7 10 15 15 8 8 8 5 3 5 6 5 4 4 7 5 7 5 7 5 10 11 14 17 17 17 17 17 17
1 4 6 5 4 6 4 4 6 7 7 10 10 7 6 5 7 4 2 2 3 4 8 6 5 5 5 4 8 4 4 11 17 17 17 17 13 6
2 2 3 10 9 9 6 4 6 5 9 5 4 5 6 5 4 4 2 1 2 2 4 3 3 5 3 7 4 7 6 6 7 6 14 14 14 14
4 3 5 10 12 12 7 10 11 7 4 4 4 4 3 3 4 3 3 4 3 5 3 3 2 5 4 5 6 8 9 9 6 6 6 7 16 19
4 5 11 11 13 7 6 8 5 3 2 4 3 4 3 4 5 4 4 6 5 5 2 1 1 2 2 5 6 8 11 6 8 6 8 8 4 4
3 5 6 7 9 2 3 1 3 1 2 2 2 4 4 5 3 2 2 2 2 4 5 3 2 1 2 4 4 7 7 6 9 9 10 9 7 5
4 2 4 3 3 4 3 3 2 3 3 3 3 3 4 6 5 2 2 3 2 4 4 4 5 5 4 4 4 5 7 6 7 8 11 10 9 7
2 2 4 4 5 4 3 3 2 1 2 3 3 3 4 4 4 3 2 2 3 4 3 4 3 3 3 4 5 4 3 4 8 8 7 9 9 6
2 4 5 5 4 4 3 2 1 2 1 3 3 4 4 4 5 4 4 3 3 4 5 4 4 2 3 5 4 4 2 3 5 8 5 7 10 11
3 5 5 4 3 3 2 2 2 3 2 4 4 5 5 3 4 4 4 4 6 6 4 5 4 3 3 5 3 5 6 4 4 6 6 7 10 21
4 4 4 4 3 1 2 0 2 3 3 4 5 4 4 4 4 5 5 8 9 5 7 5 7 13 5 1 2 6 6 9 9 5 6 6 9 9
4 2 2 1 2 1 2 3 4 5 4 4 4 3 4 4 4 5 5 6 6 6 7 7 9 6 2 3 8 6 6 6 6 11 10 11 5 6
2 1 2 3 4 3 3 3 4 4 4 3 3 4 4 4 5 5 5 5 7 6 7 8 7 4 5 3 6 8 9 10 3 5 5 10 13 15
Wind_Direction
42 22 12 355 357 342 331 268 234 312 304 323 326 337 306 273 235 187 208 211 118 347 358 329 235 231 216 218 213 211 213 217 218 215 215 216 220 222
49 46 18 14 14 20 2 4 342 291 263 7 299 309 316 307 280 243 227 238 203 213 6 334 270 245 223 216 212 206 208 212 215 213 212 215 215 216
37 46 39 42 21 17 3 13 13 18 359 323 308 307 308 307 291 253 233 242 193 279 232 245 266 228 238 216 217 214 211 212 215 215 212 209 214 213
54 53 44 31 26 13 354 359 10 356 344 319 306 319 300 296 288 317 303 242 192 205 254 260 239 230 232 239 223 215 218 214 216 218 216 212 208 209
36 73 43 33 16 358 0 3 2 332 321 315 301 309 335 351 344 350 345 341 336 195 198 239 262 260 261 246 236 231 222 220 217 220 217 216 211 212
40 60 54 33 17 6 11 4 354 349 332 323 324 337 355 349 2 6 353 347 337 320 232 210 237 229 226 222 218 221 228 227 220 217 217 215 217 215
38 28 63 36 28 23 17 10 345 350 330 327 335 344 358 358 6 338 326 325 321 11 27 271 234 240 244 243 235 236 222 227 227 224 219 216 214 217
69 39 63 37 20 11 4 4 358 352 360 354 355 359 332 316 324 340 326 350 338 333 349 308 235 262 261 239 231 233 235 238 237 225 220 221 218 217
101 71 44 26 20 4 355 357 358 0 6 349 337 305 300 312 327 325 343 334 305 310 330 285 254 263 276 264 282 281 253 232 228 227 224 221 220 220
104 113 107 48 4 20 2 353 345 337 346 344 334 296 303 328 11 351 334 320 324 335 7 332 324 336 305 277 256 247 260 249 241 226 223 226 224 218
129 201 185 220 355 21 21 352 336 326 336 338 335 322 41 28 51 34 5 4 349 321 15 356 330 315 302 297 290 275 264 259 255 238 226 220 221 224
209 274 284 301 0 346 359 326 320 304 330 325 334 336 351 354 10 63 55 18 328 335 357 338 326 348 314 308 344 317 316 264 255 243 238 234 224 218
18 293 308 338 331 309 238 255 237 254 304 325 331 344 347 337 331 359 355 191 322 256 310 356 317 343 296 318 327 306 311 316 304 272 244 231 202 194
299 301 311 313 306 313 327 293 294 331 350 10 355 330 328 318 314 318 310 312 262 225 278 40 322 13 330 304 312 329 317 311 301 304 295 205 211 206
249 274 306 314 305 297 334 322 7 357 8 16 332 304 272 283 300 336 307 313 304 280 252 146 139 306 303 289 299 312 321 312 296 327 308 293 248 172
292 305 290 305 310 175 310 329 101 40 35 273 301 292 302 317 301 283 290 308 322 309 292 247 213 200 275 276 287 299 312 325 351 340 328 313 288 204
325 327 334 340 319 303 307 317 313 12 12 316 312 318 311 320 311 311 307 318 11 308 303 289 272 244 238 242 309 314 323 329 331 327 332 313 301 275
340 295 294 285 279 264 274 279 267 352 313 305 297 299 302 316 317 319 343 344 324 310 293 280 290 325 333 302 208 288 294 310 315 321 317 320 311 307
217 266 264 261 267 269 294 271 220 227 279 304 291 297 312 326 353 351 332 326 308 293 291 291 308 268 306 302 281 252 281 290 302 309 304 308 300 295
234 241 251 264 256 265 306 252 256 271 305 278 328 350 18 11 352 335 317 305 314 309 302 302 309 295 229 266 259 273 240 261 286 291 298 297 281 272
249 240 229 245 262 329 345 179 240 307 349 23 54 23 4 348 314 308 310 318 323 316 313 304 289 283 289 48 288 284 284 239 250 251 290 297 298 300
254 292 342 39 339 44 341 18 38 51 59 47 25 353 322 325 323 319 316 313 310 299 297 297 306 311 298 262 297 287 279 281 264 270 246 260 277 306
98 84 348 14 54 77 62 46 56 98 72 48 0 342 333 327 309 299 297 301 301 306 305 305 302 294 289 263 287 301 290 284 262 289 281 277 282 269